Startpagina
METAR-TAF:

METAR-TAF

Vliegvelden :

Yellowstone Lake, Wyoming, Verenigde Staten

breedte: 44-32-40N, lengte: 110-25-16W, hoogte: 2388 m

Actueel weer

Dit bericht is 1 uur en het 2 minuten geleden gemaakt, om 11:56 UTC
Weinig wind
Temperatuur -11°C
Vochtigheid 92%
Druk 1031 hPa

METAR: KP60 161156Z AUTO 00000KT M11/M12 A3045 RMK AO1 SLP352 T11061117 11067 21106 53004

Tijdstip: 06:58 (12:58 UTC)


TAF: ontbreekt

Waarnemingen en weersverwachtingen van meer dan 4000 vliegvelden (METAR en TAF).

De beschikbare stations zijn de gele en rode punten op de kaart.

Ga met uw muis naar het station om de naam te zien.

Klik dan om waarnemingen en weersverwachtingen te zien.

kaart wijzigen: klik op de groene knoppen met een zwart kruis om in te zoomen, op de groene knop met een streepje om uit te zoomen of op de groene pijlen voor aangrenzende kaarten.


METAR-TAF: